Wind_Speed
12 13 12 12 13 13 13 14 14 14 14 13 13 13 14 13 14 15 14 15 14 14 14 13 14 13 13 13 14 13 13 13 13 12 12 13 13 12 13 12 12 12 12 13
14 14 12 13 14 14 14 14 15 15 16 14 15 15 15 15 15 15 15 15 15 15 14 14 14 15 15 14 14 14 13 13 12 13 13 13 12 12 12 12 12 12 12 13
16 14 14 14 15 15 14 15 16 16 15 15 15 15 14 14 15 17 16 16 17 16 15 15 15 15 15 14 14 14 14 13 14 13 13 13 13 13 13 12 12 13 13 13
16 15 15 16 15 15 15 15 16 16 16 16 15 15 14 15 15 16 16 16 16 16 15 15 15 15 15 14 14 14 13 13 13 13 14 14 13 13 12 12 13 14 14 14
17 16 16 16 16 16 16 16 16 15 15 16 16 16 16 16 16 16 16 15 16 16 16 16 16 16 16 16 15 14 14 14 13 13 13 13 14 14 14 14 14 15 15 15
17 17 17 17 16 16 16 16 15 15 15 15 15 17 18 17 17 17 16 16 16 16 16 17 16 16 16 16 15 14 14 14 14 14 13 13 13 14 14 15 15 15 15 14
18 17 17 17 17 17 16 16 15 15 15 15 16 18 18 18 17 17 17 17 16 17 16 16 17 16 16 16 16 15 15 15 14 14 14 14 14 14 14 15 15 15 15 15
18 18 17 17 18 17 16 16 16 15 14 16 16 18 19 18 18 18 19 18 17 17 17 17 17 17 17 17 17 16 16 16 16 16 15 15 15 15 15 16 16 15 15 16
18 18 18 18 17 18 17 17 16 17 16 17 17 19 20 18 18 19 19 19 18 18 18 18 17 17 17 18 17 17 17 17 17 17 17 17 16 16 16 16 17 17 16 16
19 19 19 18 18 19 18 18 18 19 19 18 18 19 21 19 19 18 19 19 18 18 18 18 18 18 18 18 18 18 18 18 18 19 18 18 17 17 17 17 17 17 18 18
19 19 20 20 19 19 19 19 20 20 19 19 20 21 21 20 19 18 19 19 19 19 19 18 18 19 19 19 19 19 19 19 19 19 19 19 18 19 19 18 18 18 18 18
19 19 20 20 19 18 19 20 20 20 20 20 22 23 22 20 20 20 20 20 20 21 21 20 20 20 20 20 20 20 20 20 20 19 19 19 19 19 19 19 19 19 19 19
20 20 20 20 20 19 19 20 20 21 21 21 22 23 23 22 22 21 21 21 21 21 21 21 20 20 21 21 21 21 21 21 21 20 19 19 20 20 20 19 20 20 20 20
22 21 21 20 21 20 20 21 21 22 23 22 21 22 23 24 23 23 23 23 22 22 22 22 21 21 22 22 21 21 21 22 21 21 21 21 20 21 21 21 20 20 20 21
22 22 22 22 22 22 22 22 22 23 24 24 23 24 25 25 25 23 23 23 24 24 23 23 23 22 22 22 22 21 21 22 22 21 22 22 22 22 21 22 22 22 21 21
23 23 23 23 23 24 23 23 23 23 24 25 25 26 25 25 25 25 25 24 25 25 24 24 24 24 24 23 23 23 22 22 22 21 22 22 23 22 22 22 23 22 21 21
24 25 24 24 23 25 25 23 25 25 24 25 25 25 25 26 26 27 26 25 26 26 25 25 25 25 24 24 24 24 24 23 22 22 22 22 22 22 22 23 23 23 23 22
23 24 25 24 23 25 24 24 25 26 25 25 25 26 26 26 26 27 26 26 27 27 26 26 25 25 25 25 25 24 24 24 23 23 23 23 23 22 22 23 23 24 24 24
23 23 24 24 24 25 25 24 24 25 25 25 26 26 25 26 26 25 25 26 27 26 26 26 26 26 26 25 25 25 24 24 24 24 24 23 23 23 23 23 23 23 23 23
21 22 23 25 25 25 25 24 24 25 26 26 26 26 26 27 27 26 26 27 26 26 26 26 26 26 26 26 26 26 25 25 25 24 24 24 24 24 24 24 24 24 23 23
22 22 24 25 26 26 25 25 25 26 26 26 27 27 27 28 29 29 28 27 27 27 27 27 27 27 26 26 26 26 26 26 26 26 25 25 25 25 24 24 24 24 23 23
22 23 24 25 26 26 25 25 25 27 27 27 28 28 28 29 29 29 29 28 28 27 27 27 27 27 27 27 27 27 26 26 26 26 26 26 26 26 25 24 24 24 24 24
22 23 23 25 26 26 26 25 24 26 27 27 27 28 28 29 29 29 30 29 28 28 28 28 28 28 28 28 28 27 27 26 26 26 26 26 26 26 26 25 25 25 25 25
23 23 24 24 25 25 26 26 25 25 26 27 27 28 28 29 28 28 29 29 29 28 28 29 29 28 28 28 29 29 28 27 27 26 26 26 26 26 26 26 26 26 26 26
24 24 24 24 25 26 25 26 26 25 25 26 27 28 28 28 28 28 28 28 28 29 28 29 29 28 28 28 28 28 28 28 28 28 28 28 28 27 27 27 27 28 28 28
23 24 25 24 25 26 27 26 27 27 27 27 27 27 28 28 28 27 27 27 27 27 27 28 29 29 29 29 29 29 29 29 30 30 30 30 29 29 29 29 29 29 29 29
Wind_Direction
254 255 257 260 261 259 261 259 263 267 271 272 276 277 278 277 277 278 278 278 277 281 286 287 288 291 293 294 296 297 295 292 292 291 289 288 289 290 289 287 289 291 291 290
255 255 256 256 255 255 256 257 262 265 269 272 276 278 278 279 277 277 278 277 277 281 282 283 286 290 293 292 292 292 291 292 292 290 288 289 288 291 290 289 289 291 293 293
256 254 253 254 254 253 253 254 259 265 271 273 276 276 275 277 275 275 274 275 277 281 281 280 284 288 289 291 291 291 288 288 289 290 288 290 289 287 288 289 291 292 294 294
253 251 251 253 255 255 254 258 260 265 267 271 276 279 276 277 279 276 274 275 276 279 280 279 283 285 286 288 290 289 288 289 289 290 290 290 288 286 285 287 291 293 293 294
252 249 249 250 252 252 254 259 261 264 266 268 272 275 275 277 279 278 278 277 276 276 278 279 280 282 285 286 287 287 286 288 289 288 289 288 289 288 287 288 290 292 293 293
252 249 250 250 251 252 254 255 259 262 264 265 272 271 274 277 278 278 278 276 275 276 277 278 278 280 284 284 285 286 286 285 286 287 287 288 289 288 287 288 289 290 293 293
251 251 251 252 253 252 251 252 255 260 266 270 273 270 271 277 279 278 279 277 275 277 277 276 277 278 280 281 283 285 284 282 283 284 286 288 289 291 289 288 288 289 292 294
254 253 254 254 254 253 250 253 255 256 259 269 266 268 272 274 278 278 278 277 277 277 276 277 276 276 278 280 281 284 283 282 281 281 283 286 288 290 290 290 289 290 291 293
254 255 256 253 252 250 247 248 249 254 255 258 264 269 272 274 274 275 277 279 277 275 275 276 277 278 280 282 281 280 280 280 281 280 280 283 284 287 289 290 290 288 288 290
254 257 257 255 252 251 250 249 248 249 254 256 259 262 269 273 274 276 278 278 277 275 275 276 277 279 280 280 279 278 278 280 280 280 278 280 283 285 288 289 290 289 288 288
250 255 258 257 254 254 249 246 248 249 252 255 259 261 266 269 272 275 278 278 275 274 275 276 276 277 278 279 279 278 277 278 279 279 278 279 282 284 285 286 287 289 289 288
248 251 256 259 257 255 253 250 249 249 251 254 258 264 267 268 270 274 275 276 274 273 274 276 277 277 277 277 278 278 279 277 278 278 278 279 281 283 284 286 285 286 288 289
249 247 251 257 261 256 253 252 251 251 253 255 257 262 265 266 269 274 274 275 274 273 274 275 277 276 277 277 277 276 278 278 277 277 278 279 280 281 283 284 284 285 287 288
252 250 248 252 259 260 256 254 252 252 255 257 259 262 264 265 268 272 273 273 274 273 275 276 278 277 276 276 275 275 275 277 277 278 278 278 280 281 281 283 284 285 285 284
250 251 250 250 255 260 260 256 253 255 256 257 259 262 265 268 270 269 272 273 274 274 275 276 277 277 276 276 277 276 275 277 278 279 279 279 280 280 280 280 282 283 284 284
252 252 252 249 251 257 258 258 258 260 260 261 261 262 264 267 269 269 271 273 274 274 275 275 276 276 276 275 277 278 277 277 279 281 280 280 280 280 280 280 281 281 283 284
256 257 257 253 252 256 256 259 260 261 263 263 262 263 265 266 266 268 270 270 272 273 274 274 275 275 276 275 276 278 278 278 279 281 282 283 283 281 281 281 280 281 282 284
257 257 258 257 253 256 260 261 261 262 262 262 262 263 267 269 270 269 269 270 272 273 274 274 274 274 274 274 275 276 277 277 277 280 282 283 283 283 282 281 281 280 280 280
256 258 259 259 258 259 263 264 262 262 263 263 264 266 268 269 270 269 270 271 272 271 272 273 272 272 271 273 274 275 277 276 277 278 280 281 282 282 283 283 282 281 281 280
258 258 258 258 260 261 262 263 263 264 264 264 266 267 269 270 270 270 270 270 271 270 271 271 271 271 270 271 273 274 275 276 276 277 279 280 278 279 281 282 282 281 280 280
259 260 260 260 261 263 262 262 263 266 267 266 266 267 269 270 271 271 270 270 272 272 272 271 271 271 272 273 273 273 274 275 276 277 277 278 279 279 279 280 280 280 278 278
262 263 263 263 263 264 264 265 264 266 268 268 267 267 268 271 272 273 273 272 273 273 272 271 271 271 272 272 273 273 273 275 275 276 277 277 278 280 280 280 280 280 278 277
261 264 264 264 264 263 264 266 266 266 267 268 269 269 270 271 273 274 274 274 273 273 271 270 270 271 272 273 273 273 274 274 274 275 275 276 278 279 280 281 280 279 280 279
263 262 262 263 262 262 265 266 267 267 268 269 271 272 272 272 274 274 273 273 273 273 271 268 269 269 270 271 272 272 273 273 273 274 275 276 277 277 278 279 279 279 280 280
264 263 262 262 263 265 265 266 267 268 268 269 270 271 271 272 272 271 271 272 273 273 271 269 269 271 271 271 272 270 271 272 273 274 275 275 275 276 276 277 277 278 279 280
265 264 262 260 262 264 265 267 268 268 269 270 270 271 273 273 273 272 272 274 275 273 273 271 272 273 272 271 271 272 272 273 273 273 273 274 274 275 275 274 275 277 279 280
Height
5829 5831 5831 5832 5833 5833 5833 5833 5833 5834 5834 5834 5834 5835 5835 5835 5835 5835 5835 5835 5835 5835 5835 5835 5834 5834 5833 5833 5832 5832 5832 5831 5831 5830 5829 5829 5828 5828 5827 5827 5826 5826 5825 5825
5826 5827 5829 5829 5829 5829 5830 5831 5831 5831 5830 5830 5831 5832 5832 5832 5832 5832 5832 5832 5832 5831 5832 5832 5832 5831 5831 5830 5830 5829 5829 5829 5828 5827 5827 5826 5825 5825 5824 5824 5823 5823 5822 5822
5822 5825 5824 5825 5825 5826 5827 5827 5827 5827 5827 5827 5828 5828 5828 5828 5828 5828 5829 5829 5829 5829 5829 5829 5829 5828 5828 5828 5827 5827 5826 5826 5825 5825 5824 5823 5823 5822 5822 5821 5820 5820 5820 5819
5818 5820 5820 5821 5822 5822 5823 5824 5824 5824 5824 5824 5825 5825 5825 5825 5825 5825 5825 5825 5826 5826 5825 5825 5826 5825 5825 5825 5824 5824 5823 5823 5822 5822 5821 5821 5820 5820 5819 5818 5818 5817 5816 5816
5813 5815 5816 5817 5818 5818 5819 5820 5820 5821 5821 5821 5821 5821 5822 5821 5821 5822 5822 5822 5822 5822 5822 5822 5822 5822 5821 5821 5821 5820 5820 5820 5819 5819 5818 5817 5817 5816 5816 5815 5815 5814 5813 5812
5809 5810 5811 5813 5813 5814 5815 5816 5817 5817 5817 5818 5819 5818 5818 5818 5819 5818 5818 5819 5819 5819 5819 5819 5819 5819 5818 5818 5817 5817 5817 5816 5816 5816 5815 5814 5814 5813 5812 5812 5811 5810 5810 5809
5805 5806 5807 5808 5809 5810 5811 5812 5813 5813 5813 5814 5815 5815 5816 5815 5815 5814 5815 5815 5815 5815 5815 5815 5815 5815 5815 5814 5814 5814 5813 5813 5813 5812 5812 5811 5810 5810 5809 5808 5807 5807 5806 5805
5799 5801 5802 5803 5804 5806 5807 5808 5809 5810 5811 5811 5810 5810 5812 5812 5811 5811 5811 5811 5811 5811 5811 5811 5811 5810 5811 5811 5810 5810 5810 5809 5809 5808 5808 5808 5807 5806 5805 5804 5804 5803 5802 5801
5795 5796 5797 5798 5800 5801 5802 5803 5805 5806 5806 5807 5807 5807 5806 5807 5807 5807 5807 5807 5807 5807 5807 5807 5806 5806 5807 5807 5806 5806 5806 5805 5805 5804 5804 5803 5803 5802 5801 5800 5800 5799 5798 5797
5790 5791 5792 5793 5795 5796 5798 5799 5800 5801 5801 5802 5803 5803 5802 5803 5803 5803 5803 5803 5803 5803 5802 5803 5803 5802 5802 5802 5802 5802 5801 5801 5800 5800 5799 5799 5798 5798 5797 5796 5795 5795 5794 5793
5785 5786 5787 5788 5789 5791 5793 5794 5794 5796 5797 5798 5798 5801 5798 5798 5798 5799 5799 5798 5798 5798 5798 5798 5798 5798 5798 5797 5797 5797 5797 5796 5796 5795 5794 5794 5794 5793 5792 5791 5790 5790 5789 5788
5780 5781 5782 5783 5784 5785 5787 5788 5789 5791 5792 5792 5793 5796 5793 5793 5793 5793 5794 5794 5793 5793 5793 5793 5793 5793 5793 5793 5792 5792 5792 5791 5791 5790 5790 5789 5789 5788 5787 5786 5786 5785 5784 5783
5774 5776 5777 5778 5780 5781 5781 5782 5784 5785 5786 5787 5788 5791 5788 5788 5788 5788 5789 5788 5788 5788 5788 5788 5788 5788 5788 5788 5787 5787 5786 5786 5785 5785 5785 5784 5784 5783 5782 5781 5780 5779 5778 5777
5769 5770 5772 5774 5773 5774 5775 5777 5778 5779 5780 5781 5782 5783 5782 5782 5783 5783 5783 5783 5783 5783 5783 5783 5783 5782 5782 5781 5781 5781 5781 5780 5780 5779 5779 5779 5778 5777 5776 5776 5775 5774 5773 5772
5762 5764 5765 5767 5768 5768 5769 5770 5772 5773 5774 5775 5777 5777 5777 5777 5777 5777 5777 5777 5777 5777 5777 5777 5777 5776 5776 5775 5775 5775 5774 5774 5774 5774 5773 5773 5772 5771 5770 5770 5769 5768 5768 5766
5756 5758 5759 5761 5762 5762 5763 5765 5766 5767 5768 5769 5770 5771 5771 5770 5771 5771 5771 5771 5771 5771 5771 5771 5770 5770 5770 5769 5769 5769 5768 5768 5768 5768 5767 5766 5766 5765 5764 5764 5763 5762 5761 5760
5750 5751 5752 5754 5756 5756 5757 5760 5760 5761 5762 5763 5763 5765 5764 5763 5764 5764 5764 5764 5764 5764 5764 5764 5764 5764 5763 5763 5763 5763 5763 5762 5762 5761 5761 5761 5760 5759 5759 5758 5757 5756 5755 5754
5745 5745 5746 5747 5749 5749 5754 5753 5753 5753 5754 5755 5756 5756 5757 5757 5757 5757 5757 5757 5757 5757 5757 5757 5757 5757 5757 5757 5756 5756 5756 5756 5756 5755 5755 5754 5754 5753 5752 5752 5751 5750 5749 5748
5739 5740 5740 5741 5742 5743 5745 5746 5746 5746 5747 5749 5749 5749 5749 5749 5750 5750 5750 5750 5750 5750 5750 5750 5750 5750 5750 5750 5749 5749 5749 5749 5749 5749 5749 5748 5748 5747 5746 5745 5744 5744 5743 5742
5733 5734 5735 5735 5735 5737 5739 5739 5739 5741 5740 5741 5741 5742 5742 5742 5742 5744 5743 5743 5743 5743 5743 5743 5743 5743 5743 5743 5743 5742 5742 5742 5742 5742 5742 5741 5741 5740 5739 5739 5738 5737 5736 5736
5727 5728 5728 5729 5729 5730 5732 5732 5733 5735 5734 5734 5734 5734 5735 5735 5735 5735 5735 5735 5735 5735 5735 5735 5735 5735 5736 5736 5735 5735 5735 5735 5735 5735 5734 5734 5734 5733 5732 5732 5731 5730 5730 5729
5721 5721 5722 5722 5723 5726 5725 5725 5726 5726 5726 5726 5726 5727 5727 5727 5727 5727 5727 5727 5728 5727 5728 5727 5727 5728 5728 5728 5728 5727 5728 5728 5727 5727 5727 5727 5726 5726 5725 5725 5724 5723 5723 5723
5715 5716 5716 5717 5718 5718 5717 5718 5718 5718 5718 5718 5719 5720 5720 5719 5719 5720 5719 5719 5719 5719 5719 5719 5719 5719 5720 5720 5719 5720 5720 5720 5720 5720 5720 5719 5719 5718 5718 5717 5716 5716 5716 5715
5708 5708 5708 5709 5710 5711 5711 5711 5711 5711 5711 5711 5712 5712 5712 5712 5711 5711 5711 5711 5711 5711 5710 5710 5710 5711 5711 5711 5711 5711 5711 5711 5711 5712 5712 5711 5711 5711 5710 5709 5709 5709 5708 5708
5701 5701 5701 5702 5703 5703 5704 5704 5704 5704 5704 5704 5704 5704 5704 5703 5703 5703 5703 5703 5702 5702 5702 5702 5702 5702 5702 5702 5702 5702 5702 5702 5703 5703 5703 5703 5703 5702 5702 5702 5701 5701 5700 5699
5694 5694 5694 5695 5696 5695 5696 5696 5696 5696 5696 5696 5696 5696 5696 5695 5695 5695 5694 5694 5694 5694 5693 5693 5693 5693 5693 5693 5693 5694 5694 5693 5693 5694 5694 5694 5694 5694 5693 5693 5693 5692 5692 5691